Kineis-3C

operational
NORAD ID: 61220 Int'l Des: 2024-172 Owner: KINEIS Country: F
LEOCIRCULARRETROGRADESSO

Kineis-3Cについて

説明を読み込み中...

リアルタイム位置

3D地球を読み込み中...

次回通過

高度履歴

Altitude vs Time

uPlot chart will show altitude changes over time

軌道要素

1 61220U 24172A 26063.20803304 .00003426 00000-0 55000-3 0 9992
2 61220 98.0303 154.2759 0003506 111.4414 248.7168 14.72284255 77627
Epoch: Mar 4, 2026 • Age: 10 hours

現在のステータス

高度 678.1 km
速度 7.52 km/s
衛星直下点 -56.39°S, 139.92°W
打ち上げ日 Sep 20, 2024
運用期間 1.4 years
タイプ other

技術仕様

分類 Payload
質量 28.00 kg
乾燥質量 28.00 kg
総質量 28.00 kg
長さ 0.40 m
直径 0.20 m
スパン 1.60 m
形状 Box+ 2 pan + ant
製造者 KINEIS
バスタイプ Cubesat 16U
フェーズステータス In Orbit
所有者/国 KINEIS/F

大規模コンステレーション

Loading constellations...